Weather reports worldwide

Advertisment
Grenoble/St.Geoirs, France (7486): temperature & dewpoint: 06.12.2018 00:00:00 - 12.12.2018 00:00:00 (CET)Grenoble/St.Geoirs, France (7486): temperature 5cm: 06.12.2018 00:00:00 - 12.12.2018 00:00:00 (CET)Grenoble/St.Geoirs, France (7486): temperature -20cm & temperature -100cm: 06.12.2018 00:00:00 - 12.12.2018 00:00:00 (CET)Grenoble/St.Geoirs, France (7486): wind speed & gusts: 06.12.2018 00:00:00 - 12.12.2018 00:00:00 (CET)Grenoble/St.Geoirs, France (7486): wind direction: 06.12.2018 00:00:00 - 12.12.2018 00:00:00 (CET)Grenoble/St.Geoirs, France (7486): reduced air pressure: 06.12.2018 00:00:00 - 12.12.2018 00:00:00 (CET)Grenoble/St.Geoirs, France (7486): visibility: 06.12.2018 00:00:00 - 12.12.2018 00:00:00 (CET)Grenoble/St.Geoirs, France (7486): sunshine duration: 06.12.2018 00:00:00 - 12.12.2018 00:00:00 (CET)Grenoble/St.Geoirs, France (7486): precipitation: 06.12.2018 00:00:00 - 12.12.2018 00:00:00 (CET)
Date & Time tt [°C] td [°C] tt 5cm [°C] tt -20cm [°C] tt -100cm [°C] ff [km/h] ff [kn] fx [km/h] fx [kn] dd ppp [hPa] vv [km] sd [min] rr [mm]
12.12.2018 00:00:00 -1,6 -2,9 -6,3 7,8 10,3 5 3 9 5 S 1024,4 12 0 0,0
11.12.2018 23:00:00 -1,2 -3,2 -4,8 7,8 10,3 2 1 7 4 SSE 1024,3 13 0 0,0
11.12.2018 22:00:00 0,9 -2,3 -3,0 7,9 10,3 3 2 13 7 ESE 1023,8 23 0 0,0
11.12.2018 21:00:00 1,5 -2,1 -1,0 7,9 10,3 3 1 23 12 E 1023,6 20 0 0,0
11.12.2018 20:00:00 2,5 -1,1 0,6 7,9 10,3 15 8 22 12 N 1023,3 34 0 0,0
11.12.2018 19:00:00 2,9 -0,9 -1,0 7,9 10,3 14 8 21 11 N 1023,2 39 0 0,0
11.12.2018 18:00:00 3,7 -0,7 0,5 7,9 10,3 8 4 23 12 N 1023,1 45 0 0,0
11.12.2018 17:00:00 4,9 0,5 2,8 7,9 10,3 10 5 34 18 NNW 1023,0 51 27 0,0
11.12.2018 16:00:00 6,5 0,8 5,9 7,9 10,3 18 10 29 16 NNW 1023,1 50 24 0,0
11.12.2018 15:00:00 6,1 1,2 6,3 7,9 10,3 10 6 21 11 N 1023,5 57 4 0,0
11.12.2018 14:00:00 5,8 1,3 6,1 7,9 10,3 6 3 22 12 N 1023,7 59 4 0,0
11.12.2018 13:00:00 6,0 1,3 6,2 7,9 10,3 11 6 24 13 N 1024,1 41 27 0,0
11.12.2018 12:00:00 5,7 1,8 6,3 7,9 10,4 12 7 21 11 NNW 1024,4 43 51 0,0
11.12.2018 11:00:00 5,5 1,4 8,2 7,9 10,3 6 3 13 7 NNW 1024,9 40 52 0,0
11.12.2018 10:00:00 5,0 1,1 6,2 7,9 10,3 6 4 15 8 NNW 1024,8 34 60 0,0
11.12.2018 09:00:00 4,2 1,9 1,4 8,0 10,4 8 4 16 9 E 1025,3 30 8 0,0
11.12.2018 08:00:00 3,5 1,2 2,1 8,0 10,4 6 3 28 15 NNE 1025,6 27 0 0,0
11.12.2018 07:00:00 3,8 1,8 2,6 8,1 10,4 20 11 32 17 N 1025,6 30 0 0,0
11.12.2018 06:00:00 4,4 2,1 3,7 8,1 10,4 20 11 29 16 N 1025,6 31 0 0,0
11.12.2018 05:00:00 4,7 2,1 3,2 8,2 10,4 10 5 29 16 N 1026,1 38 0 0,0
11.12.2018 04:00:00 4,8 2,2 3,6 8,2 10,4 16 9 28 15 N 1026,3 32 0 0,0
11.12.2018 03:00:00 4,7 2,2 3,3 8,3 10,4 12 6 30 16 NNE 1026,7 32 0 0,0
11.12.2018 02:00:00 4,7 2,1 0,6 8,3 10,4 13 7 28 15 NNE 1027,0 36 0 0,0
11.12.2018 01:00:00 3,8 1,5 0,7 8,4 10,4 4 2 11 6 N 1027,7 29 0 0,0
11.12.2018 00:00:00 4,0 1,4 1,3 8,4 10,4 4 2 20 11 E 1028,2 31 0 0,0
10.12.2018 23:00:00 4,7 2,2 2,7 8,4 10,4 4 2 13 7 NW 1028,2 30 0 0,0
10.12.2018 22:00:00 4,1 2,1 0,3 8,5 10,4 6 3 13 7 WSW 1028,4 15 0 0,0
10.12.2018 21:00:00 5,2 2,4 3,1 8,5 10,4 6 4 21 11 NNE 1028,7 41 0 0,0
10.12.2018 20:00:00 5,5 2,8 3,5 8,5 10,4 9 5 26 14 NNW 1028,9 37 0 0,0
10.12.2018 19:00:00 5,4 3,1 2,4 8,5 10,4 6 3 13 7 N 1028,8 40 0 0,0
10.12.2018 18:00:00 5,3 2,6 1,8 8,4 10,4 2 1 20 11 SSE 1028,5 58 0 0,0
10.12.2018 17:00:00 6,4 3,2 5,5 8,4 10,4 9 5 24 13 NNW 1028,4 60 0 0,0
10.12.2018 16:00:00 6,8 3,0 6,2 8,4 10,4 13 7 23 12 N 1028,5 28 0 0,0
10.12.2018 15:00:00 7,0 3,1 6,4 8,4 10,4 15 8 30 16 N 1028,5 23 1 0,2
10.12.2018 14:00:00 7,2 3,1 6,9 8,3 10,4 21 11 32 17 NNW 1028,6 13 4 0,0
10.12.2018 13:00:00 8,0 3,3 8,4 8,3 10,4 18 10 34 19 NW 1028,7 59 8 0,0
10.12.2018 12:00:00 7,9 3,4 8,8 8,4 10,4 14 8 34 18 NW 1029,1 50 12 0,0
10.12.2018 11:00:00 7,5 3,7 7,5 8,4 10,4 6 3 16 9 NW 1029,4 45 34 0,0
10.12.2018 10:00:00 6,1 3,8 4,3 8,4 10,4 5 3 23 12 SE 1029,3 59 0 0,0
10.12.2018 09:00:00 5,6 2,6 2,5 8,4 10,4 15 8 28 15 NNW 1028,9 60 0 0,6
10.12.2018 08:00:00 5,0 2,5 2,1 8,5 10,4 6 3 16 9 W 1028,6 58 0 0,0
10.12.2018 07:00:00 5,2 3,2 2,4 8,5 10,4 6 3 15 8 WSW 1028,1 57 0 0,2
10.12.2018 06:00:00 6,3 3,8 4,9 8,5 10,4 9 5 31 17 NNW 1027,7 7 0 0,0
10.12.2018 05:00:00 6,5 3,3 4,7 8,5 10,4 19 11 45 24 N 1027,2 60 0 0,4
10.12.2018 04:00:00 7,0 3,2 5,1 8,5 10,4 16 8 32 18 W 1027,1 19 0 0,0
10.12.2018 03:00:00 6,8 4,1 5,8 8,5 10,4 9 5 31 17 WSW 1026,7 26 0 0,2
10.12.2018 02:00:00 7,1 4,7 6,1 8,6 10,4 23 13 44 24 WNW 1026,3 12 0 0,2
10.12.2018 01:00:00 8,0 4,0 7,0 8,5 10,4 25 13 50 27 WNW 1025,7 55 0 0,0
10.12.2018 00:00:00 7,8 4,4 6,6 8,6 10,4 18 10 39 21 W 1025,4 38 0 0,0
09.12.2018 23:00:00 8,0 4,4 5,9 8,5 10,4 24 13 38 21 WNW 1024,5 42 0 0,2
09.12.2018 22:00:00 7,7 4,6 6,4 8,6 10,4 11 6 36 20 NNW 1024,2 6 0 0,6
09.12.2018 21:00:00 8,4 3,8 6,6 8,6 10,4 19 11 36 19 W 1023,1 45 0 0,0
09.12.2018 20:00:00 7,8 3,6 5,7 8,6 10,4 19 11 30 16 W 1022,7 41 0 0,0
09.12.2018 19:00:00 7,2 3,6 5,7 8,5 10,4 9 5 24 13 SSW 1022,5 52 0 0,0
09.12.2018 18:00:00 7,6 3,8 5,8 8,5 10,4 13 7 22 12 WNW 1022,2 15 0 0,0
09.12.2018 17:00:00 6,9 4,9 6,1 8,5 10,4 6 3 19 11 ESE 1021,4 31 0 0,4
09.12.2018 16:00:00 7,7 5,2 7,5 8,5 10,4 15 8 20 11 ENE 1020,7 31 0 0,0
09.12.2018 15:00:00 8,4 4,4 7,4 8,4 10,4 12 6 21 11 E 1020,6 45 0 0,0
09.12.2018 14:00:00 8,5 4,3 7,6 8,4 10,4 9 5 14 8 SSE 1020,4 26 0 0,0
09.12.2018 13:00:00 8,9 4,1 8,0 8,4 10,4 8 5 41 22 NE 1020,2 55 5 0,0
09.12.2018 12:00:00 9,4 3,4 8,4 8,4 10,4 22 12 46 25 W 1020,5 45 2 0,0
09.12.2018 11:00:00 8,0 5,6 6,9 8,4 10,4 11 6 37 20 WNW 1021,1 40 0 1,0
09.12.2018 10:00:00 7,5 5,1 6,5 8,4 10,4 10 5 21 11 E 1019,6 42 0 0,0
09.12.2018 09:00:00 6,8 5,3 4,8 8,4 10,4 10 5 13 7 E 1019,2 52 0 0,0
09.12.2018 08:00:00 7,1 4,4 5,4 8,4 10,4 6 3 14 8 ESE 1019,8 10 0 0,2
09.12.2018 07:00:00 7,6 4,4 6,2 8,5 10,4 10 6 28 15 NW 1019,2 31 0 0,2
09.12.2018 06:00:00 8,0 3,8 6,6 8,5 10,4 5 3 18 10 NNE 1018,3 57 0 0,0
09.12.2018 05:00:00 7,5 3,9 6,2 8,5 10,4 12 6 24 13 NE 1018,7 54 0 0,0
09.12.2018 04:00:00 7,4 4,4 6,6 8,5 10,4 11 6 21 11 ENE 1019,2 60 0 0,0
09.12.2018 03:00:00 7,0 4,1 6,4 8,5 10,4 13 7 26 14 E 1019,8 57 0 0,0
09.12.2018 02:00:00 7,1 4,1 6,4 8,5 10,4 16 9 29 16 ENE 1019,7 60 0 0,0
09.12.2018 01:00:00 7,1 4,2 6,4 8,5 10,4 17 9 29 16 ENE 1020,2 51 0 0,0
09.12.2018 00:00:00 6,9 4,2 6,1 8,5 10,4 15 8 25 14 ENE 1021,0 54 0 0,0
08.12.2018 23:00:00 6,9 4,2 6,1 8,5 10,4 16 9 26 14 ENE 1021,4 52 0 0,0
08.12.2018 22:00:00 6,6 4,3 5,7 8,5 10,4 11 6 25 13 ENE 1021,9 49 0 0,0
08.12.2018 21:00:00 6,4 4,1 5,5 8,5 10,4 18 10 25 14 ENE 1022,4 42 0 0,4
08.12.2018 20:00:00 6,6 3,6 5,7 8,5 10,4 15 8 28 15 ENE 1022,7 19 0 0,0
08.12.2018 19:00:00 6,6 3,4 5,8 8,5 10,4 16 9 23 12 ENE 1023,0 34 0 0,0
08.12.2018 18:00:00 6,6 3,0 5,8 8,5 10,4 17 9 27 14 ENE 1023,6 53 0 0,0
08.12.2018 17:00:00 6,7 3,3 6,2 8,5 10,4 16 9 24 13 ENE 1024,1 46 0 0,0
08.12.2018 16:00:00 7,2 4,0 6,8 8,4 10,4 17 9 23 12 E 1024,6 34 0 0,0
08.12.2018 15:00:00 7,7 3,4 7,3 8,4 10,4 11 6 20 11 ENE 1024,5 33 0 0,0
08.12.2018 14:00:00 8,9 2,0 9,5 8,4 10,4 10 5 19 10 SE 1024,6 38 3 0,0
08.12.2018 13:00:00 8,1 2,3 8,5 8,4 10,4 13 7 18 10 E 1025,4 50 0 0,0
08.12.2018 12:00:00 7,5 2,6 7,4 8,4 10,4 9 5 17 9 ESE 1025,6 20 0 0,0
08.12.2018 11:00:00 6,9 3,1 5,8 8,5 10,4 11 6 17 9 ESE 1025,8 35 0 0,0
08.12.2018 10:00:00 5,5 2,8 4,1 8,6 10,4 6 4 16 9 E 1026,0 34 0 0,0
08.12.2018 09:00:00 4,3 2,2 1,0 8,6 10,3 9 5 17 9 E 1025,8 40 0 0,0
08.12.2018 08:00:00 2,8 1,3 0,4 8,7 10,4 8 4 16 9 E 1025,8 43 0 0,0
08.12.2018 07:00:00 2,8 1,0 0,4 8,8 10,3 7 4 13 7 E 1025,4 48 0 0,0
08.12.2018 06:00:00 2,1 1,2 0,0 8,9 10,4 12 7 16 9 E 1024,8 36 0 0,0
08.12.2018 05:00:00 1,3 0,0 -1,7 8,9 10,4 7 4 14 8 E 1025,3 32 0 0,0
08.12.2018 04:00:00 2,4 0,9 -1,4 8,9 10,4 3 2 10 6 NE 1025,0 35 0 0,0
08.12.2018 03:00:00 2,4 0,5 0,5 9,0 10,3 11 6 13 7 E 1024,7 38 0 0,0
08.12.2018 02:00:00 3,6 1,8 -0,1 9,0 10,3 5 3 9 5 ESE 1024,4 40 0 0,0
08.12.2018 01:00:00 5,3 1,4 0,2 9,0 10,4 5 3 9 5 NNE 1023,7 11 0 0,0
08.12.2018 00:00:00 7,5 1,1 4,0 9,0 10,4 7 4 38 21 NW 1023,2 56 0 0,0
07.12.2018 23:00:00 8,2 2,2 6,4 9,0 10,3 16 9 48 26 W 1022,4 34 0 0,0
07.12.2018 22:00:00 8,8 5,0 7,4 9,0 10,3 18 10 50 27 NW 1020,8 60 0 2,0
07.12.2018 21:00:00 11,0 5,9 8,9 9,0 10,3 23 12 39 21 SSW 1018,5 12 0 0,2
07.12.2018 20:00:00 11,7 5,6 10,8 8,9 10,3 24 13 47 26 SSW 1018,3 59 0 0,0
07.12.2018 19:00:00 11,5 5,6 9,5 8,9 10,3 29 16 55 30 SSW 1018,1 60 0 0,0
07.12.2018 18:00:00 12,0 5,4 11,4 8,8 10,3 27 15 48 26 SW 1017,8 60 0 0,0
07.12.2018 17:00:00 12,2 5,1 11,3 8,8 10,3 22 12 42 23 SSW 1017,2 60 0 0,0
07.12.2018 16:00:00 12,9 5,6 12,1 8,7 10,4 18 10 40 22 SW 1016,8 56 48 0,0
07.12.2018 15:00:00 14,0 7,1 16,0 8,6 10,3 19 10 30 16 SSW 1016,9 53 60 0,0
07.12.2018 14:00:00 13,7 7,2 14,2 8,6 10,3 18 10 31 17 SSW 1018,8 42 46 0,0
07.12.2018 13:00:00 12,4 7,5 17,7 8,6 10,3 3 2 14 8 NNE 1020,1 41 58 0,0
07.12.2018 12:00:00 11,4 7,1 11,8 8,6 10,3 3 2 11 6 NE 1020,9 34 52 0,0
07.12.2018 11:00:00 10,0 6,9 11,1 8,6 10,3 13 7 25 14 E 1021,8 14 49 0,0
07.12.2018 10:00:00 9,1 6,4 7,9 8,6 10,3 16 9 29 16 ENE 1021,8 17 28 0,0
07.12.2018 09:00:00 8,1 6,2 7,5 8,6 10,3 18 10 26 14 E 1022,7 23 0 0,0
07.12.2018 08:00:00 7,9 6,0 7,5 8,6 10,3 9 5 20 11 ENE 1023,5 19 0 0,0
07.12.2018 07:00:00 8,0 6,3 7,1 8,6 10,3 6 3 17 9 E 1023,7 17 0 0,0
07.12.2018 06:00:00 7,6 6,2 5,7 8,6 10,3 15 8 22 12 E 1024,0 13 0 0,0
07.12.2018 05:00:00 7,1 5,9 6,6 8,6 10,3 14 8 20 11 E 1024,5 13 0 0,0
07.12.2018 04:00:00 7,6 6,1 6,7 8,7 10,3 13 7 21 12 E 1024,7 15 0 0,0
07.12.2018 03:00:00 7,3 6,1 6,4 8,7 10,3 18 10 23 12 E 1025,2 14 0 0,0
07.12.2018 02:00:00 7,7 6,5 6,8 8,7 10,3 16 9 24 13 ENE 1025,7 11 0 0,0
07.12.2018 01:00:00 7,7 6,6 6,2 8,7 10,3 12 6 17 9 ENE 1026,5 9 0 0,0
07.12.2018 00:00:00 7,9 6,8 6,9 8,7 10,3 6 4 18 10 ENE 1026,8 9 0 0,0
06.12.2018 23:00:00 7,9 7,0 7,3 8,6 10,3 8 4 11 6 E 1027,0 5 0 0,0
06.12.2018 22:00:00 7,9 7,0 5,0 8,7 10,3 11 6 17 9 E 1027,0 6 0 0,0
06.12.2018 21:00:00 8,5 7,6 6,8 8,6 10,3 6 3 19 11 ENE 1026,9 7 0 0,0
06.12.2018 20:00:00 8,6 7,5 7,7 8,6 10,3 6 4 11 6 E 1026,9 8 0 0,0
06.12.2018 19:00:00 9,3 8,2 7,2 8,6 10,3 9 5 12 7 E 1026,2 11 0 0,0
06.12.2018 18:00:00 9,0 7,8 6,1 8,5 10,3 3 1 9 5 NNW 1025,7 25 0 0,0
06.12.2018 17:00:00 9,7 8,3 7,9 8,4 10,3 6 3 14 8 ENE 1025,1 43 7 0,0
06.12.2018 16:00:00 10,6 9,2 10,7 8,4 10,3 4 2 14 8 E 1024,9 36 0 0,0
06.12.2018 15:00:00 10,4 9,3 10,1 8,3 10,3 14 8 21 11 E 1024,6 45 0 0,0
06.12.2018 14:00:00 10,1 8,7 10,9 8,3 10,3 16 9 24 13 E 1025,0 16 4 0,0
06.12.2018 13:00:00 10,2 9,0 9,8 8,2 10,3 19 10 25 13 E 1024,9 30 25 0,0
06.12.2018 12:00:00 8,8 7,9 8,9 8,2 10,3 16 9 22 12 E 1025,3 10 0 0,0
06.12.2018 11:00:00 8,7 7,8 8,6 8,2 10,3 15 8 20 11 E 1025,5 3,1 0 1,6
06.12.2018 10:00:00 8,6 7,7 8,0 8,2 10,3 12 7 23 12 ENE 1024,8 9 0 0,2
06.12.2018 09:00:00 8,1 7,2 7,4 8,2 10,3 16 8 23 12 E 1024,4 3,9 0 0,8
06.12.2018 08:00:00 7,8 6,6 7,1 8,2 10,3 18 10 24 13 ENE 1023,2 9 0 0,0
06.12.2018 07:00:00 7,6 6,4 7,0 8,2 10,3 16 8 21 12 E 1022,9 7 0 0,6
06.12.2018 06:00:00 8,0 6,3 7,2 8,2 10,3 13 7 19 10 ENE 1023,1 10 0 0,0
06.12.2018 05:00:00 8,0 6,3 6,7 8,2 10,3 14 8 23 13 ENE 1023,0 15 0 0,0
06.12.2018 04:00:00 7,8 5,9 6,6 8,2 10,3 15 8 18 10 ENE 1023,1 16 0 0,4
06.12.2018 03:00:00 9,7 6,8 8,0 8,2 10,3 4 2 15 8 ENE 1023,3 23 0 0,0
06.12.2018 02:00:00 10,4 5,8 8,1 8,2 10,3 5 3 33 18 W 1023,4 8 0 0,6
06.12.2018 01:00:00 10,8 5,1 6,4 8,2 10,3 9 5 21 11 W 1023,1 46 0 0,0
06.12.2018 00:00:00 10,6 4,1 5,2 8,2 10,3 6 3 27 15 NW 1022,9 46 0 0,0

tt = temperature
td = dewpoint
tt 5cm = temperature 5cm
tt -20cm = temperature -20cm
tt -100cm = temperature -100cm
ff = wind speed
fx = gusts
dd = wind direction
ppp = reduced air pressure
vv = visibility
sd = sunshine duration
rr = precipitation

Next stations